Meteo Giornale » Osservazioni meteo Italia » Bologna-Borgo Panigale

ore: 10:50 - Osservazioni Meteo Bologna-Borgo Panigale
Lat. 44° 32' N Lon. 11° 18' E Alt. 36 metri s.l.m.

poco_nuvoloso Europe/Rome

25 °C

Poco Nuvoloso

Temp. 24 Ore

18 °C

29 °C

Ovest/Nord-Ovest

9.3 Km/h

Dew point 17 °C

Umidità 61 %

Visibilità  10 Km

Il sole sorge alle ore 06:58

Il sole tramonta alle ore 19:17

Data e Ora Cielo e Fenomeni T °C DP °C Um. % Pres. hPa Vis. km Vento km/h
Oggi h: 10:50 poco_nuvoloso Poco Nuvoloso 25 17 61 1020 10 O/NO 9.3
Oggi h: 10:20 sereno Sereno 24 17 64 1020 10 O/NO 9.3
Oggi h: 09:50 sereno Sereno 22 17 73 1020 10 N 5.5
Oggi h: 09:20 sereno Sereno 22 18 78 1020 10 N 5.5
Oggi h: 08:50 sereno Sereno 21 17 77 1020 10 N 5.5
Oggi h: 08:20 sereno Sereno 20 17 82 1020 10 S/SO 7.4
Oggi h: 07:20 poco_nuvoloso Poco Nuvoloso 19 16 82 1019 10 SO 7.4
Oggi h: 06:20 sereno Sereno 18 16 88 1019 10 SO 7.4
Oggi h: 05:50 sereno Sereno 18 17 93 1019 10 SO 7.4
Oggi h: 05:20 sereno Sereno 18 16 88 1019 10 O 7.4
Oggi h: 04:50 sereno Sereno 19 17 88 1019 10 N 5.5
Oggi h: 04:20 sereno Sereno 19 17 88 1019 10 SO 7.4
Oggi h: 03:50 sereno Sereno 19 17 88 1019 10 SO 9.3
Oggi h: 03:20 sereno Sereno 19 17 88 1019 10 N 5.5
Oggi h: 02:50 sereno Sereno 20 17 82 1019 10 S/SO 9.3
Oggi h: 02:20 sereno Sereno 20 17 82 1019 10 S/SO 11.1
Oggi h: 01:50 sereno Sereno 20 17 82 1019 10 S/SO 11.1
Oggi h: 01:20 sereno Sereno 21 17 77 1020 10 SO 9.3
Oggi h: 00:50 sereno Sereno 21 17 77 1020 10 S/SO 13
Oggi h: 00:20 sereno Sereno 21 18 82 1020 10 S/SO 13
Ieri h: 23:50 sereno Sereno 22 18 78 1020 10 S/SO 9.3
Ieri h: 23:20 sereno Sereno 21 17 77 1020 10 N 3.7
Ieri h: 22:50 sereno Sereno 22 17 73 1020 10 N 3.7
Ieri h: 22:20 sereno Sereno 23 19 78 1020 10 N 5.5
Ieri h: 21:50 sereno Sereno 22 18 78 1019 10 E 7.4
Ieri h: 21:20 sereno Sereno 24 18 69 1019 10 E 9.3
Ieri h: 20:50 sereno Sereno 22 17 73 1019 10 N 5.5
Ieri h: 20:20 sereno Sereno 24 17 64 1019 10 N 3.7
Ieri h: 19:50 sereno Sereno 26 17 57 1018 10 N 3.7
Ieri h: 19:20 poco_nuvoloso Poco Nuvoloso 27 17 54 1018 10 N 5.5
Ieri h: 18:50 poco_nuvoloso Poco Nuvoloso 27 17 54 1018 10 N 3.7
Ieri h: 18:20 nuvoloso Nuvoloso 28 16 48 1018 10 N 5.5
Ieri h: 17:50 nuvoloso Nuvoloso 28 17 51 1018 10 N 5.5
Ieri h: 17:20 nuvoloso Nuvoloso 28 17 51 1018 10 NE 7.4
Ieri h: 16:50 nuvoloso Nuvoloso 28 17 51 1018 10 N/NE 7.4
Ieri h: 16:20 nuvoloso Nuvoloso 29 17 48 1018 10 N 3.7
Ieri h: 15:50 nuvoloso Nuvoloso 28 17 51 1018 10 N/NO 7.4
Ieri h: 15:20 nuvoloso Nuvoloso 28 17 51 1019 10 N 3.7
Ieri h: 14:50 poco_nuvoloso Poco Nuvoloso 28 17 51 1019 10 N/NE 7.4
Ieri h: 14:20 poco_nuvoloso Poco Nuvoloso 28 18 54 1019 10 N 3.7
Ieri h: 13:50 poco_nuvoloso Poco Nuvoloso 27 18 57 1019 10 N 5.5
Ieri h: 13:20 poco_nuvoloso Poco Nuvoloso 27 18 57 1020 10 O 7.4
Ieri h: 12:50 poco_nuvoloso Poco Nuvoloso 26 17 57 1020 10 N 5.5
Ieri h: 12:20 sereno Sereno 26 17 57 1020 10 N 5.5
Ieri h: 11:50 sereno Sereno 25 17 61 1020 10 N/NO 7.4